This demonstration page uses our WeatherBlox Daily Observations layout. Learn more.

Left ArrowRight Arrow

Hourly Observations for January 13, 2022

Temp ( °F °C ) Dew Point ( °F °C ) Humidity (%) Winds ( mph kmh ) Pressure ( in mb ) Visibility ( mi km ) Precip ( " mm )
12:52 am 00:52 Clear 41 5 28 -2.2 60 60 W 6 9 30.06 1018 10 16 0.00 0.00
1:52 am 01:52 Clear 40 4.4 27 -2.8 60 60 W 6 9 30.05 1018 10 16 0.00 0.00
2:52 am 02:52 Clear 38 3.3 26 -3.3 62 62 WSW 6 9 30.04 1017 10 16 0.00 0.00
3:52 am 03:52 Clear 36 2.2 26 -3.3 67 67 SW 8 13 30.02 1017 10 16 0.00 0.00
4:52 am 04:52 Clear 37 2.8 26 -3.3 65 65 SW 3 6 30.01 1016 10 16 0.00 0.00
5:52 am 05:52 Clear 37 2.8 26 -3.3 65 65 SW 5 7 30.01 1016 10 16 0.00 0.00
6:52 am 06:52 Clear 37 2.8 26 -3.3 65 65 SW 9 15 30.01 1016 10 16 0.00 0.00
7:52 am 07:52 Sunny 42 5.6 27 -2.8 55 55 WSW 12 19 30.00 1016 10 16 0.00 0.00
8:52 am 08:52 Sunny 45 7.2 28 -2.2 52 52 W 14 22 30.01 1016 10 16 0.00 0.00
9:52 am 09:52 Partly Cloudy 47 8.3 29 -1.7 50 50 WNW 9 15 30.02 1017 10 16 0.00 0.00
10:52 am 10:52 Sunny 50 10 30 -1.1 46 46 NW 10 17 30.02 1017 10 16 0.00 0.00
11:52 am 11:52 Sunny 53 11.7 31 -0.6 43 43 NW 13 20 30.01 1016 10 16 0.00 0.00
12:52 pm 12:52 Sunny 57 13.9 33 0.6 41 41 NW 15 24 29.99 1016 10 16 0.00 0.00
1:52 pm 13:52 Sunny 57 13.9 33 0.6 41 41 NNW 14 22 29.98 1015 10 16 0.00 0.00
2:52 pm 14:52 Sunny 58 14.4 34 1.1 41 41 NW 14 22 29.99 1016 10 16 0.00 0.00
3:52 pm 15:52 Sunny 57 13.9 34 1.1 42 42 NW 13 20 30.01 1016 10 16 0.00 0.00
4:52 pm 16:52 Sunny 55 12.8 33 0.6 44 44 WNW 7 11 30.03 1017 10 16 0.00 0.00
5:52 pm 17:52 Clear 44 6.7 31 -0.6 60 60 NNW 8 13 30.05 1018 10 16 0.00 0.00
6:52 pm 18:52 Clear 41 5 31 -0.6 67 67 Calm 30.06 1018 10 16 0.00 0.00
7:52 pm 19:52 Clear 38 3.3 30 -1.1 73 73 Calm 30.06 1018 10 16 0.00 0.00
8:52 pm 20:52 Clear 35 1.7 29 -1.7 78 78 Calm 30.07 1018 10 16 0.00 0.00
9:52 pm 21:52 Clear 37 2.8 30 -1.1 76 76 Calm 30.08 1019 10 16 0.00 0.00
10:52 pm 22:52 Clear 35 1.7 29 -1.7 78 78 Calm 30.06 1018 10 16 0.00 0.00
11:52 pm 23:52 Clear 35 1.7 29 -1.7 78 78 Calm 30.06 1018 10 16 0.00 0.00

Powered by AerisWeather